Weather History for KAVX - November, 2011

Change the Weather History Date:

Friday, November 4, 2011

  Actual Average (WUND) Record (WUND)
Temperature  
Mean Temperature 50 °F -  
Max Temperature 55 °F - - (-1)
Min Temperature 46 °F - - (-1)
Degree Days  
Heating Degree Days 14    
Moisture  
Dew Point 47 °F    
Average Humidity 86    
Maximum Humidity 100    
Minimum Humidity 66    
Precipitation  
Precipitation 0.16 in - - ()
Sea Level Pressure  
Sea Level Pressure 29.81 in    
Wind  
Wind Speed 12 mph (West)    
Max Wind Speed 18 mph    
Max Gust Speed 28 mph    
Visibility 8 miles    
Events Fog , Rain    
Averages and records for this station are not official NWS values.
T = Trace of Precipitation, MM = Missing Value Source: NWS Daily Summary

Daily Weather History Graph

Daily Weather History Graph

Search for Another Location

Airport or City:

Trip Planner

Search our weather history database for the weather conditions in past years. The results will help you decide how hot, cold, wet, or windy it might be!

Date:

Astronomy

Nov. 04, 2011 Rise Set
Actual Time 7:14 AM PDT 5:59 PM PDT
Civil Twilight 6:48 AM PDT 6:25 PM PDT
Nautical Twilight 6:19 AM PDT 6:54 PM PDT
Astronomical Twilight 5:50 AM PDT 7:23 PM PDT
Moon 2:38 PM PDT (11/4) 1:47 AM PDT (11/4)
Length of Visible Light 11h 36m
Length of Day
10h 44m
Waxing Gibbous, 70% of the Moon is Illuminated
Nov 4
Waxing Gibbous
Nov 10
Full
Nov 18
Last Quarter
Nov 24
New
Dec 2
First Quarter

Hourly Weather History & Observations

Time (PDT) Temp. Windchill Dew Point Humidity Pressure Visibility Wind Dir Wind Speed Gust Speed Precip Events Conditions
12:51 AM 55.0 °F - 46.0 °F 72% 29.88 in 10.0 mi SW 6.9 mph - N/A   Overcast
1:51 AM 55.0 °F - 48.0 °F 77% 29.86 in 10.0 mi SW 10.4 mph - N/A   Overcast
2:13 AM 55.4 °F - 48.2 °F 77% 29.89 in 10.0 mi WSW 8.1 mph - N/A   Overcast
2:20 AM 55.4 °F - 48.2 °F 77% 29.88 in 10.0 mi WSW 8.1 mph - N/A   Overcast
2:24 AM 55.4 °F - 48.2 °F 77% 29.88 in 10.0 mi WSW 8.1 mph - N/A   Overcast
2:43 AM 53.6 °F - 48.2 °F 82% 29.87 in 10.0 mi SW 11.5 mph - N/A   Overcast
2:51 AM 54.0 °F - 48.9 °F 83% 29.85 in 10.0 mi SW 12.7 mph - N/A   Overcast
3:51 AM 53.1 °F - 48.0 °F 83% 29.82 in 10.0 mi SW 15.0 mph - N/A   Overcast
4:29 AM 53.6 °F - 48.2 °F 82% 29.84 in 10.0 mi SW 15.0 mph - N/A   Overcast
4:48 AM 53.6 °F - 50.0 °F 88% 29.83 in 10.0 mi SW 10.4 mph - N/A   Overcast
4:51 AM 54.0 °F - 50.0 °F 86% 29.81 in 10.0 mi SW 11.5 mph - N/A   Overcast
5:02 AM 53.6 °F - 50.0 °F 88% 29.83 in 8.0 mi WSW 12.7 mph - 0.00 in Rain Light Rain
5:35 AM 53.6 °F - 51.8 °F 94% 29.83 in 2.0 mi West 15.0 mph - 0.00 in Rain Light Rain
5:37 AM 53.6 °F - 51.8 °F 94% 29.83 in 0.8 mi West 16.1 mph - 0.00 in Rain Light Rain
5:51 AM 53.1 °F - 51.1 °F 93% 29.81 in 0.2 mi West 13.8 mph - 0.02 in Fog , Rain Light Rain
6:13 AM 51.8 °F - 51.8 °F 100% 29.82 in 1.2 mi West 15.0 mph - 0.00 in Rain Light Rain
6:22 AM 51.8 °F - 51.8 °F 100% 29.82 in 0.8 mi West 13.8 mph 17.3 mph 0.00 in   Mist
6:51 AM 52.0 °F - 51.1 °F 97% 29.81 in 0.8 mi WSW 11.5 mph - 0.00 in   Overcast
6:53 AM 51.8 °F - 51.8 °F 100% 29.82 in 1.5 mi West 13.8 mph - N/A   Overcast
7:02 AM 51.8 °F - 51.8 °F 100% 29.82 in 1.0 mi WSW 11.5 mph - N/A   Overcast
7:51 AM 52.0 °F - 51.1 °F 97% 29.81 in 2.5 mi West 15.0 mph - 0.01 in   Overcast
7:58 AM 51.8 °F - 51.8 °F 100% 29.82 in 5.0 mi West 12.7 mph - N/A   Overcast
8:40 AM 51.8 °F - 48.2 °F 88% 29.83 in 10.0 mi West 13.8 mph - N/A   Overcast
8:51 AM 51.1 °F - 48.0 °F 89% 29.82 in 10.0 mi West 10.4 mph - N/A   Scattered Clouds
9:51 AM 53.1 °F - 46.9 °F 80% 29.81 in 10.0 mi West 16.1 mph - N/A   Overcast
10:51 AM 52.0 °F - 46.9 °F 83% 29.81 in 10.0 mi WSW 12.7 mph - 0.00 in Rain Light Rain
11:13 AM 53.6 °F - 48.2 °F 82% 29.82 in 10.0 mi WSW 12.7 mph 19.6 mph 0.00 in Rain Light Rain
11:44 AM 51.8 °F - 46.4 °F 82% 29.81 in 7.0 mi WSW 11.5 mph - 0.00 in Rain Light Rain
11:51 AM 51.1 °F - 48.0 °F 89% 29.79 in 8.0 mi WSW 13.8 mph - 0.01 in Rain Light Rain
12:07 PM 51.8 °F - 48.2 °F 88% 29.80 in 9.0 mi WSW 13.8 mph 20.7 mph 0.01 in Rain Light Rain
12:16 PM 51.8 °F - 48.2 °F 88% 29.80 in 7.0 mi WSW 13.8 mph 20.7 mph 0.01 in Rain Rain
12:23 PM 51.8 °F - 48.2 °F 88% 29.80 in 10.0 mi WSW 13.8 mph - 0.01 in Rain Light Rain
12:38 PM 46.4 °F 39.8 °F 46.4 °F 100% 29.79 in 1.2 mi NW 16.1 mph 25.3 mph 0.04 in Rain Light Rain
12:51 PM 46.0 °F 39.3 °F 44.1 °F 93% 29.79 in 0.2 mi WNW 16.1 mph 27.6 mph 0.10 in Fog , Rain Rain
1:34 PM 46.4 °F 41.1 °F 46.4 °F 100% 29.78 in 1.2 mi NW 11.5 mph - 0.02 in   Overcast
1:39 PM 46.4 °F 41.1 °F 46.4 °F 100% 29.77 in 3.0 mi NW 11.5 mph - 0.02 in   Mostly Cloudy
1:51 PM 48.0 °F - 46.0 °F 93% 29.77 in 10.0 mi NW 13.8 mph - 0.02 in   Mostly Cloudy
2:03 PM 48.2 °F - 44.6 °F 87% 29.76 in 10.0 mi NW 10.4 mph - N/A   Mostly Cloudy
2:51 PM 48.9 °F - 45.0 °F 86% 29.75 in 10.0 mi WNW 6.9 mph - N/A   Overcast
3:51 PM 50.0 °F - 43.0 °F 77% 29.74 in 10.0 mi West 10.4 mph - N/A   Overcast
4:51 PM 48.9 °F - 43.0 °F 80% 29.74 in 10.0 mi West 17.3 mph 24.2 mph N/A   Overcast
5:08 PM 48.2 °F - 42.8 °F 82% 29.74 in 10.0 mi West 17.3 mph 24.2 mph 0.00 in   Overcast
5:48 PM 48.2 °F - 42.8 °F 82% 29.73 in 10.0 mi West 16.1 mph - 0.00 in   Mostly Cloudy
5:51 PM 48.9 °F - 42.1 °F 77% 29.73 in 10.0 mi WNW 18.4 mph - 0.00 in   Mostly Cloudy
6:33 PM 48.2 °F - 42.8 °F 82% 29.74 in 10.0 mi West 16.1 mph 27.6 mph N/A   Scattered Clouds
6:51 PM 48.9 °F - 42.1 °F 77% 29.75 in 10.0 mi WNW 17.3 mph - N/A   Partly Cloudy
7:51 PM 48.9 °F - 43.0 °F 80% 29.77 in 10.0 mi West 12.7 mph - N/A   Partly Cloudy
8:51 PM 50.0 °F - 43.0 °F 77% 29.78 in 10.0 mi WNW 15.0 mph - N/A   Partly Cloudy
9:51 PM 50.0 °F - 44.1 °F 80% 29.80 in 10.0 mi WNW 18.4 mph 27.6 mph N/A   Partly Cloudy
10:51 PM 50.0 °F - 44.1 °F 80% 29.83 in 10.0 mi NNW 10.4 mph - N/A   Mostly Cloudy
11:01 PM 48.2 °F - 42.8 °F 82% 29.83 in 10.0 mi North 9.2 mph - N/A   Mostly Cloudy
11:39 PM 50.0 °F - 39.2 °F 66% 29.84 in 10.0 mi North 6.9 mph - N/A   Mostly Cloudy
11:51 PM 48.9 °F - 39.9 °F 71% 29.85 in 10.0 mi North 6.9 mph - N/A   Mostly Cloudy